Вернуться в каталог

FENGYUN 1C DEB

АктивенPO
NORAD 30129·DEBRIS·🇨🇳 China

Запущен May 10, 1999 с Taiyuan Satellite Launch Center

Loading…

Ближайшие Пролёты (ближайшие 24 часа)

TLE

СвежийSource: Space-Track

Эпоха: Sep 14, 2026, 06:08 UTC

1 30129U 99025SJ  26257.25558420  .00000431  00000-0  26349-3 0  9998
2 30129  98.0352 171.7594 0185442  26.8120 123.3236 14.01961514  3376

Отслеживайте FENGYUN 1C DEB в реальном времени с AllMySat

Download on the App Store